User: anonymous   Login
Location: Unspecified
(0.0000°N, 0.0000°E)
Time: 22:50:02
(UTC+00:00)
Language:

Kosmos-2154 - Orbit

View from above orbital plane
View from above orbital plane
View from above satellite
View from above satellite

Ground track
Ground track

The orbit data is extracted from the following two-line orbital elements,

1 21666U 91059A   23083.54957400  .00000091  00000-0  81400-4 0  9992
2 21666  82.9023 266.1072 0023830 253.9405 159.9748 13.73380440582770
Epoch (UTC): 24 March 2023 13:11:23
Eccentricity: 0.0023830
inclination: 82.9023°
perigee height: 970 km
apogee height: 1005 km
right ascension of ascending node: 266.1072°
argument of perigee: 253.9405°
revolutions per day: 13.73380440
mean anomaly at epoch: 159.9748°
orbit number at epoch: 58277

The dashed part of the orbit path shows where the satellite is in the earth's shadow,  

DLR